Find Local Weather

World > North America > United States > New Hampshire

West Franklin, New Hampshire Regional Weather

Lat: 43.44N, Lon: 71.66W
Wx Zone: NHZ008
Feedback

West Franklin, NH Regional Weather

Expires:201905231900;;339700
ASUS41 KGYX 231810
RWRGYX
WEATHER ROUNDUP FOR MAINE AND NEW HAMPSHIRE
NATIONAL WEATHER SERVICE GRAY ME
200 PM EDT THU MAY 23 2019


NHZ002-005-008-009-011-012-014-231900-
NEW HAMPSHIRE
  
CITY           SKY/WX    TMP DP  RH WIND       PRES   REMARKS
PORTSMOUTH     PTSUNNY   69  51  52 SE10      29.99F                  
ROCHESTER      FAIR      72  50  45 CALM      30.00F                  
6HR MIN TEMP:  55; 6HR MAX TEMP:  73;                                

NASHUA         CLOUDY    69  55  60 VRB7      30.01F                  
MANCHESTER     PTSUNNY   71  51  49 S20G26    29.99F                  
6HR MIN TEMP:  56; 6HR MAX TEMP:  72;                                

CONCORD        FAIR      71  51  49 S12G18    29.99F                  
6HR MIN TEMP:  55; 6HR MAX TEMP:  74;                                

LACONIA        FAIR      66  49  54 NE8       29.99F                  
PLYMOUTH       FAIR      68  49  49 CALM      29.98F                  
BERLIN         NOT AVBL                                               
WHITEFIELD     FAIR      69  41  36 CALM      29.97F                  
6HR MIN TEMP:  54; 6HR MAX TEMP:  69;                                

JAFFREY        CLOUDY    67  52  58 S9        30.02F                  
6HR MIN TEMP:  54; 6HR MAX TEMP:  69;                                

KEENE          FAIR      70  55  59 S16       29.99F                  
LEBANON        FAIR      74  51  44 SW9       29.95F                  
6HR MIN TEMP:  56; 6HR MAX TEMP:  74;                                

MT WASHINGTON  FOG       43  43 100 W29         N/A  VSB 1/16         
6HR MIN TEMP:  32; 6HR MAX TEMP:  44;                                

$$


SKY/WX - Weather  TMP - Temperature  DP - Dew Point  RH - Relative Humidity
WIND - Wind Direction/Speed PRES - Barometric Pressure VSB - Visibility
WCI - Wind Chill Index E13G22 Wind - East Wind 13 mph/Gusts of 22 mph